Погода в Красноторовке

Россия / Калининградская область     54°53′43″N   20°01′15″E
темп.,
°C
ветер,
м/с
пор.,
м/с
влажн.,
%
обл.,
%
осадки,
мм/ч
давл.,
гПа
погр.,
м
28 февраля, вс
вс2823:00+4зсз688348 0.0 1032169
02:00+4з798374 0.0 1031138
05:00+4з8129366 0.0 1029284
08:00+4зсз9129360 0.0 1029354
11:00+4зсз81193100 0.0 1028344
14:00+4сз81191100 0.0 1029290
17:00+4сз811860 0.0 1029169
20:00+5сз710850 0.0 1030138
1 марта, пн
пн123:00+5ссз79831 0.0 1031110
02:00+5ссз66820 0.0 103262
05:00+5сз66820 0.0 103259
08:00+4з68870 0.0 1033115
11:00+4з710910 0.0 1032170
14:00+4зюз812900 0.0 1032245
17:00+4зюз8138712 0.0 1029238
20:00+4з1015876 0.0 1029315
2 марта, вт
вт223:00+4з1014900 0.0 1028289
02:00+4з912890 0.0 1028216
05:00+4з811900 0.0 1027205
08:00+4зсз810900 0.0 1028210
11:00+4зсз710890 0.0 1028175
14:00+4зсз78890 0.0 1029137
17:00+4сз56877 0.0 102992
20:00+4ссз34856 0.0 103132
3 марта, ср
ср323:00+4ссв44830 0.0 103244
02:00+3св347733 0.0 103233
05:00+3св0182100 0.0 103122
08:00+3ююв127775 0.0 103022
11:00+3ю34720 0.0 103057
14:00+3юз568412 0.0 1028136
17:00+4юз57860 0.0 102597
20:00+5зюз66840 0.0 102268
4 марта, чт
чт423:00+5зюз79820 0.0 1020115
02:00+4зюз710850 0.0 1017197
05:00+4зюз710880 0.0 1015177
08:00+4зюз79930 0.0 1012195
11:00+4з799413 0.0 1011235
14:00+3сз349555 0.1 101089
17:00+2ссв8897100 0.2 1010313
20:00+2ссв101173100 0.4 1010860